ASTROSAT

导读

ASTROSAT是印度首颗专门用于天文学研究的人造卫星,于2015年9月28日发射升空,卫星重约1.5吨,被送入650公里的预定轨道,设计任务周期5年。它搭载了5台科学仪器,可同时在多波长范围开展观测,覆盖可见光、紫外和X射线波段,主要用于研究恒星形成区、双星系统、黑洞等天体物理现象,标志着印度空间天文学进入自主观测新阶段。

基本信息
目录编号:
40930
目录名称:
ASTROSAT
国际标识:
2015-052A
轨道中心:
EARTH
卫星名称:
ASTROSAT
卫星全名:
--
卫星状态:
在轨 (已飞行4001 天)
发射日期:
2015-09-28 UTC
国别 :
印度 (IN)
星等 :
--
该卫星已列入 空间交会检测服务 Space Conjunction Data Service (SCDS) ,当前飞行风险评估等级: 无高风险
轨道信息
数据来源 国际轨道数据
星历时间: 2026-09-11T14:21:28+0800
8小时前
查看轨道信息
半长轴: 6999.152km
偏心率: 0.000796
轨道倾角: 5.997°
近地点辐角 188.285°
升交点赤经 255.707°
平近点角 171.715°
近地点: 615.443km
远地点: 626.587km
周期: 97.124分钟
每日圈数: 14.826366
详细信息
使用方式:
暂无
2D轨道图
3D轨道图
轨道高度分析图
轨道倾角分析图
轨道综合分析图
查看轨道综合分析图
与全量物体交会距离演化趋势
与全量物体交会风险概率演化趋势